| time (UTC) | temp C | wind direction | speed KPH | gust KPH | rain 1hr cm | rain 24hr cm | rain mn cm | humidity % | barometer mb |
| 20260505152012 | 10 | 0 | 0.0 | 0.0 | 0.00 | 0.13 | 0.08 | 98 | 1009.8 |
| 20260505151008 | 10 | 0 | 0.0 | 0.0 | 0.00 | 0.15 | 0.08 | 98 | 1009.8 |
| 20260505125008 | 10 | 0 | 0.0 | 0.0 | 0.00 | 0.43 | 0.08 | 98 | 1010.3 |
| 20260505124009 | 10 | 0 | 0.0 | 0.0 | 0.00 | 0.43 | 0.08 | 98 | 1010.3 |
| 20260505123008 | 10 | 0 | 0.0 | 0.0 | 0.00 | 0.43 | 0.08 | 98 | 1010.3 |
| 20260505122011 | 10 | 0 | 0.0 | 0.0 | 0.00 | 0.43 | 0.08 | 98 | 1010.3 |
| 20260505121007 | 10 | 0 | 0.0 | 0.0 | 0.00 | 0.43 | 0.08 | 98 | 1010.3 |
| 20260505120010 | 10 | 0 | 0.0 | 0.0 | 0.00 | 0.43 | 0.08 | 98 | 1010.4 |
| 20260505115007 | 10 | 0 | 0.0 | 0.0 | 0.00 | 0.43 | 0.08 | 98 | 1010.5 |
| 20260505114008 | 10 | 0 | 0.0 | 0.0 | 0.00 | 0.43 | 0.08 | 98 | 1010.5 |
| 20260505113008 | 10 | 0 | 0.0 | 0.0 | 0.00 | 0.43 | 0.08 | 98 | 1010.5 |
| 20260505112009 | 10 | 0 | 0.0 | 0.0 | 0.00 | 0.43 | 0.08 | 98 | 1010.6 |
| 20260505111008 | 10 | 0 | 0.0 | 0.0 | 0.00 | 0.43 | 0.08 | 98 | 1010.7 |
| 20260505101012 | 10 | 0 | 0.0 | 0.0 | 0.00 | 0.43 | 0.08 | 98 | 1011.0 |
| 20260505100008 | 10 | 0 | 0.0 | 0.0 | 0.00 | 0.43 | 0.08 | 98 | 1011.0 |
| 20260505094013 | 10 | 0 | 0.0 | 0.0 | 0.00 | 0.43 | 0.08 | 98 | 1011.0 |
| 20260505093008 | 10 | 0 | 0.0 | 0.0 | 0.03 | 0.43 | 0.08 | 98 | 1010.9 |
| 20260505091010 | 11 | 0 | 0.0 | 0.0 | 0.03 | 0.43 | 0.08 | 98 | 1010.8 |
| 20260505085010 | 10 | 0 | 0.0 | 0.0 | 0.03 | 0.43 | 0.08 | 98 | 1010.9 |
| 20260505083008 | 10 | 0 | 0.0 | 0.0 | 0.03 | 0.43 | 0.08 | 98 | 1011.0 |
| 20260505075012 | 10 | 0 | 0.0 | 0.0 | 0.00 | 0.41 | 0.05 | 98 | 1011.2 |
| 20260505073014 | 10 | 0 | 0.0 | 0.0 | 0.00 | 0.41 | 0.05 | 98 | 1011.1 |
| 20260505071014 | 10 | 0 | 0.0 | 0.0 | 0.00 | 0.41 | 0.05 | 98 | 1011.2 |
| 20260505065011 | 11 | 0 | 0.0 | 0.0 | 0.00 | 0.41 | 0.05 | 98 | 1011.2 |
| 20260505063011 | 11 | 0 | 0.0 | 0.0 | 0.00 | 0.41 | 0.05 | 98 | 1011.2 |
| 20260505062008 | 11 | 0 | 0.0 | 0.0 | 0.00 | 0.41 | 0.05 | 97 | 1011.3 |
| 20260505061010 | 11 | 0 | 0.0 | 0.0 | 0.00 | 0.41 | 0.05 | 97 | 1011.2 |
| 20260505053008 | 11 | 0 | 0.0 | 0.0 | 0.00 | 0.41 | 0.05 | 97 | 1011.2 |
| 20260505052009 | 11 | 0 | 0.0 | 0.0 | 0.00 | 0.41 | 0.05 | 97 | 1011.2 |
| 20260505051015 | 11 | 0 | 0.0 | 0.0 | 0.03 | 0.41 | 0.05 | 97 | 1011.1 |
| 20260505041009 | 11 | 0 | 0.0 | 0.0 | 0.05 | 0.41 | 0.05 | 97 | 1011.2 |
| 20260505040011 | 11 | 0 | 0.0 | 0.0 | 0.05 | 0.38 | 0.05 | 97 | 1011.2 |
| 20260505035011 | 11 | 0 | 0.0 | 0.0 | 0.03 | 0.36 | 0.03 | 97 | 1011.3 |
| 20260505034011 | 11 | 0 | 0.0 | 0.0 | 0.00 | 0.33 | 0.00 | 97 | 1011.4 |
| 20260505033009 | 11 | 0 | 0.0 | 0.0 | 0.00 | 0.33 | 0.00 | 97 | 1011.4 |
| 20260505032011 | 11 | 0 | 0.0 | 0.0 | 0.00 | 0.33 | 0.00 | 97 | 1011.5 |
| 20260505030009 | 11 | 0 | 0.0 | 0.0 | 0.00 | 0.33 | 0.00 | 97 | 1011.7 |
| 20260505023012 | 11 | 0 | 0.0 | 0.0 | 0.00 | 0.33 | 0.00 | 96 | 1011.8 |
| 20260505022009 | 11 | 0 | 0.0 | 0.0 | 0.00 | 0.33 | 0.00 | 96 | 1011.8 |
| 20260505021009 | 11 | 0 | 0.0 | 0.0 | 0.00 | 0.33 | 0.00 | 96 | 1011.8 |
| 20260505020010 | 11 | 0 | 0.0 | 0.0 | 0.00 | 0.33 | 0.00 | 96 | 1011.7 |
| 20260505015008 | 11 | 0 | 0.0 | 0.0 | 0.00 | 0.33 | 0.00 | 96 | 1011.7 |
| 20260505014009 | 11 | 0 | 0.0 | 0.0 | 0.00 | 0.33 | 0.00 | 96 | 1011.8 |
| 20260505013009 | 11 | 0 | 0.0 | 0.0 | 0.00 | 0.33 | 0.00 | 95 | 1011.8 |
| 20260505012009 | 11 | 0 | 0.0 | 0.0 | 0.00 | 0.33 | 0.00 | 95 | 1011.9 |
| 20260505011010 | 11 | 0 | 0.0 | 0.0 | 0.00 | 0.33 | 0.00 | 95 | 1011.9 |
| 20260505010009 | 11 | 0 | 0.0 | 0.0 | 0.00 | 0.33 | 0.00 | 95 | 1012.1 |
| 20260505005009 | 11 | 0 | 0.0 | 0.0 | 0.00 | 0.33 | 0.00 | 95 | 1012.0 |
| 20260505004010 | 11 | 0 | 0.0 | 0.0 | 0.00 | 0.33 | 0.00 | 94 | 1012.1 |
| 20260505003009 | 11 | 0 | 0.0 | 0.0 | 0.00 | 0.33 | 0.00 | 94 | 1012.2 |
| 20260505001009 | 11 | 0 | 0.0 | 0.0 | 0.00 | 0.33 | 0.00 | 94 | 1012.6 |
| 20260505000010 | 11 | 0 | 0.0 | 0.0 | 0.00 | 0.33 | 0.00 | 94 | 1012.6 |
| 20260504234012 | 11 | 0 | 0.0 | 0.0 | 0.00 | 0.33 | 0.00 | 94 | 1012.7 |
| 20260504233013 | 11 | 0 | 0.0 | 0.0 | 0.00 | 0.33 | 0.00 | 94 | 1012.8 |
| 20260504232013 | 11 | 0 | 0.0 | 0.0 | 0.00 | 0.33 | 0.00 | 94 | 1012.8 |
| 20260504231013 | 11 | 0 | 0.0 | 0.0 | 0.00 | 0.33 | 0.00 | 94 | 1012.9 |
| 20260504230012 | 11 | 0 | 0.0 | 0.0 | 0.00 | 0.33 | 0.00 | 94 | 1013.1 |
| 20260504225012 | 11 | 0 | 0.0 | 0.0 | 0.00 | 0.33 | 0.00 | 94 | 1013.1 |
| 20260504224012 | 11 | 0 | 0.0 | 0.0 | 0.00 | 0.33 | 0.00 | 94 | 1013.1 |
| 20260504223012 | 11 | 0 | 0.0 | 0.0 | 0.00 | 0.33 | 0.00 | 93 | 1013.2 |
| 20260504222013 | 11 | 0 | 0.0 | 0.0 | 0.00 | 0.33 | 0.00 | 93 | 1013.3 |
| 20260504221012 | 11 | 0 | 0.0 | 0.0 | 0.00 | 0.33 | 0.00 | 93 | 1013.3 |
| 20260504220016 | 11 | 0 | 0.0 | 0.0 | 0.00 | 0.33 | 0.00 | 93 | 1013.4 |
| 20260504214013 | 11 | 0 | 0.0 | 0.0 | 0.00 | 0.33 | 0.33 | 92 | 1013.6 |
| 20260504213021 | 11 | 0 | 0.0 | 0.0 | 0.00 | 0.33 | 0.33 | 92 | 1013.7 |
| 20260504212045 | 11 | 0 | 0.0 | 0.0 | 0.00 | 0.33 | 0.33 | 92 | 1013.7 |
| 20260504211014 | 11 | 0 | 0.0 | 0.0 | 0.00 | 0.33 | 0.33 | 92 | 1013.8 |
| 20260504205014 | 11 | 0 | 0.0 | 0.0 | 0.00 | 0.33 | 0.33 | 92 | 1013.9 |
| 20260504204014 | 11 | 0 | 0.0 | 0.0 | 0.00 | 0.33 | 0.33 | 92 | 1013.9 |
| 20260504203014 | 11 | 0 | 0.0 | 0.0 | 0.00 | 0.36 | 0.33 | 92 | 1013.9 |
| 20260504202016 | 11 | 0 | 0.0 | 0.0 | 0.00 | 0.36 | 0.33 | 92 | 1013.9 |
| 20260504201014 | 11 | 0 | 0.0 | 0.0 | 0.00 | 0.36 | 0.33 | 92 | 1013.9 |
| 20260504200023 | 11 | 0 | 0.0 | 0.0 | 0.00 | 0.36 | 0.33 | 93 | 1013.8 |
| 20260504194014 | 11 | 0 | 0.0 | 0.0 | 0.00 | 0.41 | 0.33 | 93 | 1013.6 |
| 20260504193013 | 12 | 0 | 0.0 | 0.0 | 0.00 | 0.41 | 0.33 | 93 | 1013.5 |
| 20260504192013 | 12 | 0 | 0.0 | 0.0 | 0.00 | 0.43 | 0.33 | 92 | 1013.3 |
| 20260504190013 | 12 | 0 | 0.0 | 0.0 | 0.00 | 0.43 | 0.33 | 91 | 1013.3 |
| 20260504185013 | 12 | 0 | 0.0 | 0.0 | 0.00 | 0.43 | 0.33 | 91 | 1013.2 |
| 20260504183010 | 13 | 0 | 0.0 | 0.0 | 0.00 | 0.43 | 0.33 | 90 | 1013.0 |
| 20260504181012 | 13 | 0 | 0.0 | 0.0 | 0.00 | 0.43 | 0.33 | 89 | 1013.0 |
| 20260504180013 | 13 | 0 | 0.0 | 0.0 | 0.00 | 0.43 | 0.33 | 89 | 1013.0 |
| 20260504175012 | 13 | 0 | 0.0 | 0.0 | 0.00 | 0.43 | 0.33 | 88 | 1013.1 |
| 20260504174013 | 13 | 0 | 0.0 | 0.0 | 0.00 | 0.43 | 0.33 | 88 | 1013.1 |
| 20260504172013 | 13 | 0 | 0.0 | 0.0 | 0.00 | 0.43 | 0.33 | 89 | 1013.1 |
| 20260504171012 | 13 | 0 | 0.0 | 0.0 | 0.00 | 0.43 | 0.33 | 89 | 1013.2 |